Findlay, OH

7:28 PM EDT on May 26, 2017 (GMT -0400)
Findlay

Weather History for KFDY - January, 2013

Change the Weather History Date:

Thursday, January 3, 2013

  Actual Average Record
Temperature  
Mean Temperature 18 °F -  
Max Temperature 28 °F 34 °F 62 °F (1950)
Min Temperature 7 °F 21 °F -9 °F (2014)
Degree Days  
Heating Degree Days 48    
Moisture  
Dew Point 14 °F    
Average Humidity 73    
Maximum Humidity 81    
Minimum Humidity 59    
Precipitation  
Precipitation 0.00 in - - ()
Sea Level Pressure  
Sea Level Pressure 30.19 in    
Wind  
Wind Speed 11 mph (SW)    
Max Wind Speed 17 mph    
Max Gust Speed -    
Visibility 9 miles    
Events      
Averages and records for this station are not official NWS values.
T = Trace of Precipitation, MM = Missing Value Source: NWS Daily Summary

Daily Weather History Graph

Daily Weather History Graph

Search for Another Location

Airport or City:

Trip Planner

Search our weather history database for the weather conditions in past years. The results will help you decide how hot, cold, wet, or windy it might be!

Date:

Astronomy

Jan. 03, 2013 Rise Set
Actual Time 7:59 AM EST 5:19 PM EST
Civil Twilight 7:28 AM EST 5:50 PM EST
Nautical Twilight 6:54 AM EST 6:24 PM EST
Astronomical Twilight 6:21 AM EST 6:57 PM EST
Moon 11:57 PM EST (1/3) 11:07 AM EST (1/3)
Length of Visible Light 10h 21m
Length of Day
9h 19m
Waning Gibbous, 65% of the Moon is Illuminated
Jan 3
Waning Gibbous
Jan 4
Last Quarter
Jan 11
New
Jan 18
First Quarter
Jan 26
Full

Hourly Weather History & Observations

Time (EST) Temp. Windchill Dew Point Humidity Pressure Visibility Wind Dir Wind Speed Gust Speed Precip Events Conditions
12:53 AM 7.0 °F -4.5 °F 1.9 °F 80% 30.21 in 10.0 mi South 6.9 mph - N/A   Clear
1:53 AM 9.0 °F -0.9 °F 1.9 °F 73% 30.20 in 10.0 mi South 5.8 mph - N/A   Clear
2:53 AM 9.0 °F -2.2 °F 1.9 °F 73% 30.20 in 10.0 mi South 6.9 mph - N/A   Clear
3:53 AM 7.0 °F -5.7 °F 1.0 °F 77% 30.19 in 10.0 mi South 8.1 mph - N/A   Clear
4:53 AM 9.0 °F -3.2 °F 1.0 °F 70% 30.17 in 10.0 mi South 8.1 mph - N/A   Clear
5:53 AM 10.0 °F -3.7 °F 1.9 °F 70% 30.18 in 10.0 mi South 10.4 mph - N/A   Clear
6:53 AM 12.0 °F 0.5 °F 3.9 °F 70% 30.18 in 10.0 mi SSW 8.1 mph - N/A   Overcast
7:53 AM 19.0 °F 6.8 °F 7.0 °F 59% 30.17 in 10.0 mi SSW 11.5 mph - N/A   Overcast
8:53 AM 19.0 °F 6.8 °F 8.1 °F 62% 30.17 in 10.0 mi SSW 11.5 mph - N/A   Overcast
9:53 AM 21.0 °F 10.6 °F 9.0 °F 60% 30.17 in 10.0 mi SW 9.2 mph - N/A   Overcast
10:53 AM 23.0 °F 11.1 °F 12.0 °F 63% 30.19 in 10.0 mi WSW 12.7 mph - N/A   Partly Cloudy
11:39 AM 24.8 °F 12.4 °F 12.2 °F 59% 30.15 in 10.0 mi WSW 15.0 mph - N/A   Overcast
11:53 AM 24.1 °F 11.0 °F 15.1 °F 69% 30.18 in 10.0 mi West 16.1 mph - N/A   Overcast
12:53 PM 24.1 °F 12.0 °F 16.0 °F 71% 30.17 in 10.0 mi WSW 13.8 mph - N/A   Overcast
1:49 PM 26.6 °F 15.2 °F 19.4 °F 74% 30.12 in 9.0 mi WSW 13.8 mph - N/A   Overcast
1:53 PM 26.1 °F 14.0 °F 19.0 °F 75% 30.15 in 9.0 mi SW 15.0 mph - N/A   Overcast
2:53 PM 26.1 °F 13.1 °F 21.0 °F 81% 30.16 in 8.0 mi WSW 17.3 mph - N/A   Overcast
3:03 PM 26.6 °F 14.7 °F 21.2 °F 80% 30.13 in 7.0 mi WSW 15.0 mph - N/A   Overcast
3:53 PM 27.0 °F 14.3 °F 21.0 °F 78% 30.19 in 7.0 mi WSW 17.3 mph - N/A   Overcast
4:53 PM 27.0 °F 14.7 °F 21.0 °F 78% 30.20 in 7.0 mi WSW 16.1 mph - N/A   Overcast
5:53 PM 27.0 °F 15.2 °F 21.9 °F 81% 30.22 in 7.0 mi WSW 15.0 mph - N/A   Overcast
6:53 PM 27.0 °F 15.2 °F 21.9 °F 81% 30.22 in 8.0 mi WSW 15.0 mph - N/A   Overcast
7:53 PM 27.0 °F 15.6 °F 21.9 °F 81% 30.23 in 8.0 mi WSW 13.8 mph - N/A   Overcast
8:53 PM 28.0 °F 17.0 °F 21.9 °F 78% 30.24 in 9.0 mi WSW 13.8 mph - N/A   Overcast
9:33 PM 28.4 °F 18.5 °F 21.2 °F 74% 30.21 in 9.0 mi WSW 11.5 mph - N/A   Overcast
9:53 PM 28.0 °F 18.1 °F 21.9 °F 78% 30.24 in 9.0 mi WSW 11.5 mph - N/A   Overcast
10:01 PM 28.4 °F 19.1 °F 23.0 °F 80% 30.21 in 8.0 mi WSW 10.4 mph - N/A   Overcast
10:53 PM 28.0 °F 18.1 °F 21.9 °F 78% 30.24 in 10.0 mi WSW 11.5 mph - N/A   Overcast
11:53 PM 28.0 °F 16.5 °F 19.9 °F 72% 30.23 in 10.0 mi WSW 15.0 mph - N/A   Overcast